Location: Gull Harbor
(47.1000°N, 122.9000°W)
Time: 09:40:04
(UTC-07:00)

ISS - Pass Details

Date: 28 March 2019
Orbit: 408 x 410 km, 51.6° (Epoch: 20 April)

Event Time Altitude Azimuth Distance (km) Brightness Sun altitude
Rises 22:12:52 0° 291° (WNW) 2,340 1.2 -25.5°
Reaches altitude 10° 22:15:01 10° 298° (WNW) 1,477 0.0 -25.8°
Enters shadow 22:16:48 26° 317° (NW) 845 -1.6 -26.1°
